Tracking 19484 objects as of 20-Jan-2019
HD Live streaming from Space Station
objects crossing your sky now

COSMOS 1228

Track COSMOS 1228 now!
10-day predictions
COSMOS 1228 is classified as:


NORAD ID: 12107
Int'l Code: 1980-102A
Perigee: 1,400.8 km
Apogee: 1,470.9 km
Inclination: 74.0 °
Period: 114.4 minutes
Semi major axis: 7806 km
RCS: 0.7206 m2 (medium)
Launch date: December 23, 1980
Source: Commonwealth of Independent States (former USSR) (CIS)
Launch site: PLESETSK MISSILE AND SPACE COMPLEX (PKMTR)
aabbcc
Your satellite tracking list
Your tracking list is empty




NASA's NSSDC Master Catalog

Two Line Element Set (TLE):
1 12107U 80102A   19019.91043747 -.00000021 +00000-0 -27892-4 0  9994
2 12107 073.9970 348.9670 0044891 142.8437 277.7769 12.58600183749256
Source of the keplerian elements: AFSPC